Flag for U.S.A. Weather past 2 weeks in Stroudsburg, Pennsylvania, U.S.A.

Now
76 °F

Sunny.


Feels Like: 77 °F
Forecast: 69 / 89 °F
Wind: 9 mph from Southwest

Location: Pocono Mountains Municipal Airport

Current Time: Jul 22, 2014 at 8:48:30 PM

Latest Report: Jul 22, 2014 at 7:53 PM


Visibility: 10 mi

Pressure: 30.10 "Hg

Humidity: 74%

Dew point: 67 °F

Location of StroudsburgLocation

Historic Weather in Stroudsburg — Graph

°F

Stroudsburg temperature yesterday

Maximum temperature yesterday: 77 °F (at 2:53 PM)
Minimum temperature yesterday: 57 °F (at 4:53 AM)
Average temperature yesterday: 68 °F

Past Weeks' High & Low Weather Summary

 TemperatureHumidityPressure
High82 °F (Jul 7, 2:53 PM)96% (Jul 14, 10:53 PM)30.27 "Hg (Jul 14, 10:53 PM)
Low50 °F (Jul 18, 3:53 AM)41% (Jul 18, 3:53 PM)29.69 "Hg (Jul 8, 7:53 PM)
Average68 °F75%30.05 "Hg
* Reported Jul 7 12:53 PM — Jul 22 12:53 PM, Stroudsburg, Weather by CustomWeather, © 2014

Note: Actual official high and low records may vary slightly from our data, if they occured in-between our weather recording intervals... More about our weather records

Advertising

Stroudsburg weather history for previous 24 hours

 ConditionsComfort  
Time TempWeatherWind HumidityBarometerVisibility
12:53 PM
Jul 22
79 °FBroken clouds.5 mph62%30.17 "Hg10 mi
11:53 AM78 °FPartly sunny.9 mph64%30.18 "Hg10 mi
10:53 AM77 °FPartly sunny.10 mph64%30.18 "Hg10 mi
9:53 AM74 °FPassing clouds.9 mph71%30.19 "Hg10 mi
8:53 AM71 °FSunny.9 mph78%30.20 "Hg10 mi
7:53 AM69 °FSunny.5 mph81%30.21 "Hg10 mi
7:02 AM65 °FFog.No wind91%30.23 "Hg6 mi
5:53 AM62 °FFog.3 mph93%30.19 "Hg2 mi
4:53 AM61 °FFog.3 mph93%30.19 "Hg4 mi
3:53 AM62 °FFog.No wind93%30.19 "Hg4 mi
2:53 AM64 °FFog.5 mph90%30.18 "Hg6 mi
1:53 AM64 °FClear.5 mph90%30.19 "Hg7 mi
12:53 AM63 °FClear.6 mph90%30.20 "Hg8 mi
11:53 PM
Jul 21
65 °FClear.7 mph87%30.19 "Hg10 mi
10:53 PM66 °FClear.5 mph87%30.19 "Hg9 mi
9:53 PM65 °FPassing clouds.5 mph91%30.20 "Hg9 mi
8:53 PM68 °FPassing clouds.3 mph84%30.19 "Hg10 mi
Weather by CustomWeather, © 2014

See weather overviewHow to use our weather pages